Torna al catalogo

STARLINK-35027

AttivoComunicazioniVLEO
NORAD 65466·PAYLOAD·🇺🇸 United States

Lanciato Sep 3, 2025 da Cape Canaveral Space Force Station

Loading…

Prossimi Passaggi (prossime 24 ore)

TLE

AggiornatoSource: CelesTrak SupGP

Epoca: Sep 15, 2026, 04:09 UTC

1 65466C 25195J   26258.17340278 -.00027859  00000+0 -82364-3 0  2580
2 65466  53.1564  94.6277 0001073  82.6517 245.5799 15.34383818    14

Traccia STARLINK-35027 in tempo reale con AllMySat

Download on the App Store